• In India
  • List of Countries
  • For 7 days
  • Water Temperature
  • Satellite Maps
  • Weather Map
  • Weather Widgets
  • user-avatar
    Login

    Hourly Weather New Delhi

    Today, 12 December, Tuesday

    Time Temperature Precipitation Wind Pressure Humidity
    00:00 +19°C° 0.2 mm 2 mps 740 mmHg 52%
    01:00 +18°C° 0.2 mm 2 mps 740 mmHg 54%
    02:00 +18°C° 0.2 mm 2 mps 739 mmHg 57%
    03:00 +18°C° 0 mm 2 mps 740 mmHg 58%
    04:00 +18°C° 0 mm 2 mps 740 mmHg 58%
    05:00 +18°C° 0 mm 1 mps 740 mmHg 68%
    06:00 +18°C° 0 mm 1 mps 741 mmHg 67%
    07:00 +18°C° 0 mm 1 mps 741 mmHg 66%
    08:00 +19°C° 0 mm 1 mps 741 mmHg 66%
    09:00 +20°C° 0 mm 1 mps 742 mmHg 61%
    10:00 +22°C° 0 mm 1 mps 742 mmHg 56%
    11:00 +23°C° 0 mm 1 mps 742 mmHg 54%
    12:00 +24°C° 0 mm 1 mps 742 mmHg 51%
    13:00 +25°C° 0 mm 1 mps 741 mmHg 48%
    14:00 +25°C° 0 mm 1 mps 741 mmHg 45%
    15:00 +25°C° 0 mm 1 mps 741 mmHg 45%
    16:00 +24°C° 0 mm 1 mps 741 mmHg 46%
    17:00 +22°C° 0 mm 1 mps 741 mmHg 57%
    18:00 +21°C° 0 mm 1 mps 741 mmHg 59%
    19:00 +20°C° 0 mm 2 mps 742 mmHg 61%
    20:00 +19°C° 0 mm 2 mps 742 mmHg 63%
    21:00 +19°C° 0 mm 2 mps 742 mmHg 64%
    22:00 +18°C° 0 mm 2 mps 742 mmHg 65%
    23:00 +18°C° 0 mm 2 mps 742 mmHg 66%

    Tomorrow, 13 December, Wednesday

    Time Temperature Precipitation Wind Pressure Humidity
    00:00 +17°C° 0 mm 2 mps 742 mmHg 67%
    01:00 +17°C° 0 mm 2 mps 742 mmHg 68%
    02:00 +17°C° 0 mm 2 mps 742 mmHg 70%
    03:00 +16°C° 0 mm 2 mps 742 mmHg 72%
    04:00 +16°C° 0 mm 2 mps 742 mmHg 73%
    05:00 +16°C° 0 mm 1 mps 742 mmHg 75%
    06:00 +16°C° 0 mm 1 mps 742 mmHg 74%
    07:00 +18°C° 0 mm 1 mps 743 mmHg 73%
    08:00 +18°C° 0 mm 1 mps 743 mmHg 72%
    09:00 +20°C° 0 mm 1 mps 743 mmHg 65%
    10:00 +20°C° 0 mm 0 mps 743 mmHg 58%
    11:00 +21°C° 0 mm 0 mps 744 mmHg 51%
    12:00 +24°C° 0 mm 1 mps 743 mmHg 45%
    13:00 +24°C° 0 mm 1 mps 742 mmHg 39%
    14:00 +25°C° 0 mm 2 mps 742 mmHg 34%
    15:00 +24°C° 0 mm 1 mps 742 mmHg 35%
    16:00 +23°C° 0 mm 1 mps 741 mmHg 36%
    17:00 +22°C° 0 mm 1 mps 741 mmHg 37%
    18:00 +22°C° 0 mm 1 mps 742 mmHg 38%
    19:00 +21°C° 0 mm 1 mps 742 mmHg 40%
    20:00 +21°C° 0 mm 1 mps 743 mmHg 42%
    21:00 +20°C° 0 mm 1 mps 743 mmHg 43%
    22:00 +19°C° 0 mm 2 mps 743 mmHg 45%
    23:00 +18°C° 0 mm 2 mps 743 mmHg 46%

    Day after tomorrow, 14 December, Thursday

    Time Temperature Precipitation Wind Pressure Humidity
    00:00 +18°C° 0 mm 2 mps 743 mmHg 48%
    01:00 +17°C° 0 mm 2 mps 743 mmHg 50%
    02:00 +17°C° 0 mm 2 mps 743 mmHg 52%
    03:00 +17°C° 0 mm 2 mps 743 mmHg 55%
    04:00 +16°C° 0 mm 2 mps 743 mmHg 58%
    05:00 +16°C° 0 mm 2 mps 743 mmHg 60%
    06:00 +16°C° 0 mm 2 mps 743 mmHg 60%
    07:00 +17°C° 0 mm 2 mps 744 mmHg 60%
    08:00 +18°C° 0 mm 1 mps 744 mmHg 60%
    09:00 +19°C° 0 mm 2 mps 745 mmHg 51%
    10:00 +21°C° 0 mm 2 mps 745 mmHg 42%
    11:00 +24°C° 0 mm 2 mps 745 mmHg 32%
    12:00 +25°C° 0 mm 2 mps 745 mmHg 29%
    13:00 +25°C° 0 mm 2 mps 744 mmHg 25%
    14:00 +26°C° 0 mm 2 mps 744 mmHg 22%
    15:00 +25°C° 0 mm 2 mps 743 mmHg 24%
    16:00 +24°C° 0 mm 2 mps 743 mmHg 25%
    17:00 +21°C° 0 mm 2 mps 743 mmHg 27%
    18:00 +21°C° 0 mm 2 mps 743 mmHg 28%
    19:00 +20°C° 0 mm 2 mps 743 mmHg 30%
    20:00 +19°C° 0 mm 2 mps 744 mmHg 31%
    21:00 +19°C° 0 mm 3 mps 744 mmHg 33%
    22:00 +18°C° 0 mm 3 mps 744 mmHg 35%
    23:00 +17°C° 0 mm 3 mps 744 mmHg 37%

    15 December, Friday

    Time Temperature Precipitation Wind Pressure Humidity
    00:00 +17°C° 0 mm 3 mps 744 mmHg 39%
    01:00 +17°C° 0 mm 3 mps 743 mmHg 42%
    02:00 +16°C° 0 mm 3 mps 743 mmHg 44%
    03:00 +16°C° 0 mm 3 mps 743 mmHg 47%
    04:00 +14°C° 0 mm 3 mps 743 mmHg 49%
    05:00 +14°C° 0 mm 3 mps 743 mmHg 52%
    06:00 +14°C° 0 mm 3 mps 744 mmHg 50%
    07:00 +16°C° 0 mm 3 mps 744 mmHg 48%
    08:00 +16°C° 0 mm 3 mps 745 mmHg 45%
    09:00 +18°C° 0 mm 3 mps 745 mmHg 38%
    10:00 +20°C° 0 mm 4 mps 745 mmHg 31%
    11:00 +22°C° 0 mm 4 mps 746 mmHg 24%
    12:00 +22°C° 0 mm 4 mps 745 mmHg 22%
    13:00 +23°C° 0 mm 4 mps 744 mmHg 20%
    14:00 +25°C° 0 mm 4 mps 744 mmHg 18%
    15:00 +23°C° 0 mm 4 mps 744 mmHg 20%
    16:00 +21°C° 0 mm 4 mps 743 mmHg 21%
    17:00 +20°C° 0 mm 3 mps 743 mmHg 23%
    18:00 +19°C° 0 mm 3 mps 744 mmHg 24%
    19:00 +18°C° 0 mm 3 mps 744 mmHg 25%
    20:00 +18°C° 0 mm 3 mps 744 mmHg 25%
    21:00 +17°C° 0 mm 3 mps 744 mmHg 26%
    22:00 +17°C° 0 mm 3 mps 744 mmHg 27%
    23:00 +16°C° 0 mm 3 mps 744 mmHg 28%

    16 December, Saturday

    Time Temperature Precipitation Wind Pressure Humidity
    00:00 +16°C° 0 mm 3 mps 744 mmHg 28%
    01:00 +14°C° 0 mm 3 mps 744 mmHg 29%
    02:00 +14°C° 0 mm 3 mps 744 mmHg 30%
    03:00 +13°C° 0 mm 3 mps 744 mmHg 31%
    04:00 +13°C° 0 mm 3 mps 743 mmHg 31%
    05:00 +12°C° 0 mm 3 mps 743 mmHg 32%
    06:00 +12°C° 0 mm 3 mps 744 mmHg 32%
    07:00 +13°C° 0 mm 4 mps 745 mmHg 32%
    08:00 +13°C° 0 mm 4 mps 745 mmHg 32%
    09:00 +15°C° 0 mm 4 mps 745 mmHg 28%
    10:00 +18°C° 0 mm 4 mps 746 mmHg 25%
    11:00 +20°C° 0 mm 4 mps 746 mmHg 21%
    12:00 +21°C° 0 mm 4 mps 745 mmHg 20%
    13:00 +22°C° 0 mm 4 mps 745 mmHg 18%
    14:00 +23°C° 0 mm 4 mps 744 mmHg 16%
    15:00 +22°C° 0 mm 4 mps 744 mmHg 18%
    16:00 +21°C° 0 mm 3 mps 744 mmHg 19%
    17:00 +20°C° 0 mm 3 mps 744 mmHg 21%
    18:00 +19°C° 0 mm 3 mps 744 mmHg 21%
    19:00 +18°C° 0 mm 3 mps 744 mmHg 21%
    20:00 +17°C° 0 mm 3 mps 745 mmHg 22%
    21:00 +17°C° 0 mm 3 mps 745 mmHg 22%
    22:00 +16°C° 0 mm 3 mps 745 mmHg 22%
    23:00 +16°C° 0 mm 3 mps 745 mmHg 23%

    17 December, Sunday

    Time Temperature Precipitation Wind Pressure Humidity
    00:00 +14°C° 0 mm 3 mps 745 mmHg 23%
    01:00 +14°C° 0 mm 3 mps 745 mmHg 23%
    02:00 +14°C° 0 mm 3 mps 745 mmHg 24%
    03:00 +13°C° 0 mm 3 mps 745 mmHg 24%
    04:00 +13°C° 0 mm 3 mps 744 mmHg 25%
    05:00 +12°C° 0 mm 3 mps 744 mmHg 25%
    06:00 +13°C° 0 mm 3 mps 745 mmHg 26%
    07:00 +13°C° 0 mm 3 mps 746 mmHg 26%
    08:00 +13°C° 0 mm 3 mps 746 mmHg 26%
    09:00 +15°C° 0 mm 4 mps 746 mmHg 24%
    10:00 +19°C° 0 mm 4 mps 746 mmHg 21%
    11:00 +21°C° 0 mm 4 mps 746 mmHg 19%
    12:00 +22°C° 0 mm 4 mps 746 mmHg 18%
    13:00 +23°C° 0 mm 4 mps 745 mmHg 17%
    14:00 +25°C° 0 mm 5 mps 744 mmHg 16%
    15:00 +23°C° 0 mm 4 mps 744 mmHg 17%
    16:00 +22°C° 0 mm 4 mps 744 mmHg 19%
    17:00 +20°C° 0 mm 3 mps 744 mmHg 20%
    18:00 +20°C° 0 mm 3 mps 744 mmHg 20%
    19:00 +19°C° 0 mm 3 mps 744 mmHg 20%
    20:00 +18°C° 0 mm 3 mps 745 mmHg 20%
    21:00 +18°C° 0 mm 3 mps 745 mmHg 20%
    22:00 +17°C° 0 mm 3 mps 745 mmHg 20%
    23:00 +17°C° 0 mm 3 mps 745 mmHg 20%
    Show more